Wind_Speed
37 36 38 38 37 37 37 35 32 30 28 26 24 24 20 21 20 23 25 27 30 33 37 40 42 45 44 42 45 45 43 44 51 59 44 35 29 18 19 25 28 25 25
35 36 37 36 35 34 34 32 29 27 27 26 25 23 22 21 21 20 20 21 25 26 27 31 34 36 38 40 39 37 37 33 30 35 44 37 40 32 34 34 26 21 26
34 37 36 37 34 32 32 30 26 25 26 26 25 24 23 23 22 22 22 23 24 26 28 28 29 30 30 32 33 32 33 31 30 19 23 30 24 28 23 24 25 26 28
36 36 37 38 37 34 31 28 27 25 24 23 23 21 21 19 18 19 20 21 22 22 24 23 22 29 30 29 27 26 28 25 34 42 29 29 24 25 29 24 29 31 30
38 37 39 39 37 36 33 29 26 25 24 24 21 19 17 16 17 17 17 18 18 18 13 13 17 22 26 26 25 24 23 26 23 26 25 32 41 43 40 31 32 31 30
39 38 42 39 38 34 33 31 25 27 26 21 21 18 15 16 13 11 11 11 11 6 8 12 14 16 17 18 19 19 17 22 23 20 24 26 27 29 28 24 23 21 23
39 42 40 38 35 33 31 30 30 29 29 25 22 20 18 16 16 13 10 10 4 5 6 9 10 10 6 6 15 6 13 15 16 17 13 14 15 16 18 19 19 20 20
42 40 38 36 35 36 36 35 33 31 29 27 25 23 22 20 18 15 13 10 9 8 7 9 2 3 2 3 4 4 5 9 13 15 13 13 15 13 10 12 10 12 14
41 39 36 34 35 36 35 35 36 33 30 28 25 23 23 21 21 20 18 15 13 11 10 9 8 6 4 3 3 3 3 5 7 8 10 10 10 7 6 6 5 5 8
39 35 33 34 36 36 35 38 36 34 32 32 28 25 25 25 23 21 19 18 18 17 15 15 13 11 8 6 6 5 3 3 3 4 5 4 5 6 6 7 10 10 9
36 32 30 32 34 36 36 38 36 35 33 33 30 29 27 26 26 26 24 23 23 22 22 20 18 17 15 12 8 5 5 6 7 9 9 9 10 10 12 12 9 6 4
35 29 29 29 32 34 36 37 36 35 33 31 31 30 27 26 26 26 25 24 23 24 25 24 23 21 20 16 12 10 9 8 7 7 9 13 13 14 13 10 6 4 5
39 33 27 27 29 30 32 34 36 35 32 29 29 29 29 28 27 27 25 23 21 21 21 22 23 23 22 21 16 13 11 9 9 11 13 14 14 12 10 6 6 8 9
37 37 34 30 26 26 27 30 33 34 32 29 28 27 27 26 26 26 25 23 21 20 19 19 19 18 19 19 18 14 14 15 15 13 13 13 12 10 8 8 9 10 8
34 34 34 33 32 29 25 26 28 30 30 29 27 27 26 24 24 24 25 25 23 21 22 23 22 20 17 18 18 18 16 14 14 14 14 12 11 10 9 10 10 9 6
31 32 33 33 32 30 28 25 24 24 25 25 24 25 27 26 25 24 23 24 24 23 22 20 22 22 19 18 18 18 17 16 15 14 12 12 10 9 10 9 8 7 5
28 30 31 31 31 32 30 27 23 19 20 22 23 24 24 25 25 25 25 24 23 22 22 21 21 20 19 17 16 15 15 15 14 12 11 10 10 10 8 7 6 5 5
28 27 29 30 30 32 33 31 23 18 17 18 21 22 22 23 24 25 24 25 25 24 22 20 18 18 17 15 13 12 11 11 12 11 9 9 8 8 7 6 5 5 4
25 25 26 27 28 31 35 37 23 13 14 16 17 18 20 20 20 20 21 22 22 23 24 23 20 18 16 14 13 9 8 7 7 7 7 7 6 6 6 5 5 3 3
24 24 24 26 28 28 32 35 28 14 12 12 14 15 16 17 19 20 20 20 20 20 20 20 21 21 18 16 11 12 8 6 5 5 6 5 4 4 3 2 2 3 3
24 23 23 23 25 27 28 29 27 23 17 15 14 13 13 15 16 17 17 18 18 19 19 19 18 19 19 17 15 12 8 6 4 2 2 3 2 1 1 1 0 1 2
21 19 21 20 21 23 24 25 25 23 22 19 17 16 15 15 15 15 16 16 16 16 16 16 17 17 16 15 15 13 11 7 3 1 2 2 1 0 1 1 1 2 2
21 20 18 18 18 19 20 21 21 21 20 20 18 17 17 16 16 16 15 15 15 15 16 16 16 16 15 14 13 12 10 10 7 3 3 4 4 4 3 3 2 1 1
22 19 19 18 17 17 17 18 18 18 18 17 18 17 15 14 15 15 15 16 16 16 16 17 19 19 18 16 14 12 10 8 7 7 5 4 4 3 3 4 4 3 1
21 21 20 19 18 17 16 16 17 17 16 16 14 12 12 13 14 14 14 15 15 16 16 17 18 20 21 21 21 18 15 11 7 5 5 4 3 4 3 3 4 4 6
23 22 22 22 21 20 19 17 16 16 16 15 15 15 14 13 12 12 13 13 13 15 17 17 18 22 24 27 28 25 20 17 12 6 2 2 1 1 1 2 3 4 6
Wind_Direction
338 337 333 331 327 322 319 315 311 308 308 307 305 304 295 285 280 277 272 268 266 262 259 259 260 260 262 265 266 267 267 264 257 258 268 243 244 260 274 278 275 276 275
342 341 340 338 338 335 329 321 312 309 308 307 304 297 292 288 286 284 283 281 273 266 262 261 261 262 266 267 270 271 271 266 270 268 252 247 273 292 289 288 279 276 274
346 346 346 344 342 342 342 341 336 324 316 310 310 308 304 296 292 289 287 285 281 278 276 273 273 266 269 274 273 270 261 262 247 260 259 256 259 276 283 270 261 267 270
349 349 349 348 350 348 347 348 347 342 340 336 329 314 309 310 308 306 298 296 296 292 291 286 276 260 270 270 272 269 258 246 249 251 254 245 268 278 276 270 266 266 269
355 353 350 349 350 353 357 354 351 352 350 348 346 344 344 324 310 304 312 311 307 294 279 284 278 277 272 278 265 256 243 245 259 254 254 246 258 267 269 268 274 272 273
357 353 354 355 357 358 2 7 9 6 5 0 4 4 6 3 352 336 326 322 321 301 280 287 294 287 271 253 247 231 231 230 220 226 256 249 246 246 255 256 264 270 265
2 1 3 8 14 17 22 24 21 18 19 19 16 19 23 24 24 17 10 4 353 348 342 332 301 308 299 219 262 272 205 201 206 231 232 239 235 233 240 251 261 275 285
7 12 16 24 30 33 29 26 22 21 22 26 29 31 34 35 35 36 39 36 36 39 24 22 35 293 178 254 306 304 217 197 211 216 245 241 240 256 264 273 276 286 288
16 21 28 32 29 26 27 25 22 22 21 23 25 29 32 36 39 43 46 45 45 40 34 29 33 33 14 319 257 207 186 200 210 217 238 244 241 239 237 256 281 285 259
23 29 33 30 29 27 25 22 24 27 30 30 35 37 35 36 37 41 48 48 51 51 51 52 52 51 47 45 37 50 86 106 166 179 184 185 182 163 164 167 160 150 124
24 28 27 26 26 24 24 24 30 31 32 33 37 40 44 44 48 51 54 58 60 61 60 59 57 53 51 54 62 74 92 105 116 127 127 132 138 149 152 152 138 120 109
19 24 24 21 23 25 26 25 27 32 35 35 39 42 44 48 50 50 52 54 55 55 57 54 49 48 51 55 69 81 95 108 107 122 133 137 145 147 148 136 120 102 97
17 16 14 17 19 22 26 27 29 31 35 36 37 38 41 43 44 47 47 46 48 50 47 47 47 45 44 44 55 71 87 101 109 121 127 132 136 131 118 120 103 99 104
15 18 16 12 8 9 17 24 27 29 34 36 38 37 40 43 40 41 42 44 41 37 37 37 37 39 42 44 51 65 74 86 96 105 110 112 112 110 111 104 105 106 97
15 15 17 18 16 12 9 15 22 28 30 34 36 39 38 38 39 39 42 42 41 42 41 44 43 41 47 51 59 62 70 76 82 93 98 103 107 108 103 111 108 99 88
17 16 13 13 16 15 14 12 10 20 29 31 32 36 37 35 38 39 39 43 43 41 39 40 40 40 49 53 60 66 71 77 81 86 93 97 99 101 109 103 95 85 64
15 17 15 11 10 12 13 12 13 12 23 30 33 35 37 39 38 41 44 42 39 40 41 39 40 43 45 48 55 65 71 74 77 81 85 92 99 107 103 91 85 79 72
6 13 14 14 11 9 11 8 7 16 22 30 34 36 36 35 35 38 38 40 40 39 39 39 39 38 42 46 51 59 71 80 83 80 81 90 95 103 100 94 94 90 72
2 3 9 12 15 11 12 14 22 21 22 26 29 33 35 36 36 35 35 35 37 37 39 39 38 39 38 40 48 55 64 76 83 85 85 90 99 101 102 101 98 79 58
5 359 2 7 11 14 16 20 26 42 31 26 23 21 26 30 32 33 31 32 32 33 36 36 36 37 39 40 44 46 59 67 78 97 102 87 90 103 110 114 90 81 64
355 359 359 4 7 12 13 22 24 19 20 26 18 13 11 11 12 13 17 21 24 26 29 31 31 32 33 38 39 44 49 55 65 101 156 113 70 107 107 124 18 18 50
356 353 358 1 3 5 12 12 22 24 21 15 16 16 14 11 5 2 5 8 12 14 16 18 21 24 24 27 30 30 33 39 29 48 178 233 292 18 18 353 18 41 50
344 350 348 352 356 357 0 8 11 16 19 18 15 17 20 21 21 19 18 20 21 19 19 18 14 12 9 7 12 14 16 16 12 348 288 259 247 255 270 277 270 220 130
338 340 343 340 343 345 348 352 1 4 7 15 20 17 12 17 21 24 26 24 21 20 19 16 14 11 6 360 353 344 341 345 348 351 333 298 276 259 260 261 244 217 193
329 327 325 329 332 332 333 334 339 347 352 354 0 7 7 5 5 7 8 11 13 16 12 4 3 0 353 349 342 331 315 298 296 310 339 327 294 264 240 256 250 243 242
322 321 319 317 318 321 319 317 318 322 328 335 338 342 342 342 349 354 353 351 353 353 350 349 349 350 349 349 343 329 302 267 253 242 275 327 308 319 348 313 282 261 261
Height
5709 5702 5693 5684 5675 5667 5660 5653 5649 5643 5640 5636 5633 5630 5627 5626 5625 5624 5623 5622 5622 5623 5624 5626 5627 5629 5630 5631 5632 5634 5636 5640 5643 5648 5651 5654 5655 5655 5658 5660 5662 5665 5668
5707 5698 5689 5680 5672 5663 5655 5648 5643 5638 5634 5630 5627 5625 5623 5621 5619 5618 5617 5616 5615 5615 5615 5616 5618 5620 5621 5621 5622 5623 5624 5629 5632 5633 5639 5646 5646 5648 5648 5653 5656 5658 5660
5705 5696 5686 5677 5668 5660 5652 5644 5638 5632 5628 5624 5621 5618 5615 5614 5613 5612 5610 5610 5609 5608 5608 5608 5609 5610 5611 5611 5612 5614 5617 5620 5624 5624 5628 5636 5638 5641 5643 5645 5647 5650 5655
5703 5693 5684 5674 5665 5657 5649 5642 5636 5630 5625 5620 5616 5613 5611 5608 5607 5605 5604 5603 5602 5601 5600 5600 5599 5602 5603 5603 5604 5606 5609 5612 5616 5619 5622 5627 5632 5633 5638 5639 5641 5641 5642
5701 5691 5682 5672 5663 5655 5647 5641 5635 5629 5624 5618 5614 5610 5606 5604 5602 5601 5600 5599 5597 5595 5594 5595 5595 5595 5595 5595 5596 5597 5599 5603 5609 5613 5615 5617 5622 5624 5628 5631 5633 5634 5634
5702 5691 5681 5670 5662 5654 5647 5641 5635 5630 5623 5618 5614 5609 5605 5602 5600 5598 5597 5596 5593 5592 5591 5591 5591 5590 5589 5589 5590 5590 5592 5595 5599 5604 5607 5608 5613 5614 5618 5621 5625 5625 5626
5703 5691 5681 5672 5664 5657 5650 5644 5638 5632 5626 5620 5615 5611 5606 5603 5601 5599 5596 5595 5593 5592 5590 5590 5588 5587 5586 5585 5585 5584 5585 5589 5593 5599 5602 5601 5604 5607 5612 5615 5616 5617 5617
5704 5694 5685 5677 5670 5663 5656 5650 5643 5636 5630 5624 5619 5614 5610 5607 5604 5601 5598 5596 5594 5592 5591 5589 5588 5587 5587 5586 5585 5584 5585 5588 5591 5595 5595 5600 5604 5606 5606 5609 5610 5611 5611
5708 5699 5691 5684 5676 5669 5663 5656 5648 5641 5634 5628 5623 5619 5615 5611 5608 5605 5602 5600 5597 5595 5593 5592 5590 5589 5589 5588 5587 5586 5586 5587 5589 5591 5595 5597 5600 5601 5602 5603 5604 5606 5611
5712 5705 5698 5691 5683 5676 5669 5661 5653 5646 5639 5633 5628 5623 5619 5616 5612 5609 5606 5604 5602 5599 5598 5596 5594 5593 5591 5589 5588 5587 5587 5587 5589 5591 5593 5593 5595 5598 5601 5606 5609 5611 5610
5717 5710 5703 5696 5689 5681 5674 5667 5659 5652 5645 5640 5634 5629 5625 5622 5618 5615 5612 5610 5608 5606 5604 5602 5600 5597 5594 5591 5590 5589 5589 5589 5591 5592 5594 5596 5599 5602 5605 5609 5610 5610 5611
5722 5714 5708 5701 5694 5687 5680 5673 5666 5658 5653 5647 5642 5637 5633 5629 5626 5622 5620 5616 5614 5611 5609 5606 5604 5601 5599 5597 5595 5593 5593 5594 5595 5596 5598 5599 5603 5605 5608 5609 5610 5611 5610
5726 5719 5712 5706 5699 5692 5686 5679 5673 5665 5659 5655 5649 5645 5641 5637 5633 5629 5626 5623 5620 5617 5615 5612 5608 5606 5603 5601 5599 5598 5597 5597 5598 5599 5601 5604 5606 5608 5609 5611 5612 5611 5612
5730 5722 5716 5710 5704 5698 5691 5685 5678 5672 5666 5661 5656 5652 5647 5643 5640 5636 5632 5629 5626 5623 5620 5617 5614 5611 5609 5606 5604 5602 5602 5602 5602 5603 5605 5606 5608 5610 5612 5612 5613 5614 5615
5733 5726 5720 5713 5707 5701 5695 5690 5684 5678 5673 5668 5663 5658 5654 5650 5646 5642 5638 5634 5631 5628 5625 5621 5618 5616 5614 5611 5609 5607 5606 5606 5607 5607 5609 5610 5612 5613 5614 5615 5616 5617 5617
5736 5730 5723 5717 5710 5704 5698 5693 5688 5683 5678 5673 5669 5665 5660 5656 5652 5648 5644 5640 5637 5633 5630 5627 5624 5621 5619 5617 5615 5613 5612 5612 5612 5612 5613 5614 5615 5616 5618 5619 5619 5619 5619
5738 5732 5726 5719 5713 5707 5701 5696 5690 5686 5682 5678 5674 5670 5666 5662 5658 5654 5650 5646 5642 5638 5635 5633 5630 5627 5624 5622 5621 5619 5618 5617 5617 5618 5618 5618 5619 5620 5621 5621 5621 5621 5621
5740 5734 5728 5722 5716 5709 5702 5696 5691 5688 5685 5681 5678 5674 5671 5667 5663 5659 5656 5651 5648 5644 5641 5637 5634 5632 5630 5628 5626 5625 5623 5623 5622 5622 5622 5622 5622 5622 5622 5623 5623 5623 5622
5742 5736 5730 5724 5718 5712 5705 5697 5691 5689 5687 5685 5682 5678 5675 5671 5668 5664 5660 5657 5653 5649 5646 5642 5639 5636 5633 5631 5629 5628 5627 5626 5626 5625 5625 5625 5625 5625 5624 5624 5624 5624 5623
5742 5737 5732 5727 5721 5715 5708 5702 5696 5691 5688 5686 5684 5682 5679 5675 5671 5668 5665 5661 5657 5654 5650 5647 5644 5641 5637 5635 5632 5631 5630 5629 5628 5628 5628 5628 5627 5627 5626 5626 5625 5624 5623
5742 5738 5733 5728 5723 5718 5712 5706 5701 5697 5693 5689 5686 5683 5681 5678 5675 5671 5667 5664 5661 5657 5654 5651 5647 5644 5641 5639 5636 5634 5632 5631 5630 5630 5629 5629 5628 5628 5627 5626 5625 5624 5623
5742 5737 5733 5729 5724 5720 5715 5710 5705 5700 5696 5693 5689 5686 5682 5679 5676 5673 5670 5666 5662 5659 5656 5653 5650 5647 5644 5642 5639 5636 5634 5632 5631 5630 5629 5629 5628 5628 5627 5626 5625 5624 5624
5739 5736 5732 5728 5724 5720 5716 5712 5707 5703 5698 5695 5691 5688 5684 5681 5678 5675 5672 5668 5665 5661 5658 5655 5652 5649 5646 5643 5641 5638 5635 5633 5631 5630 5629 5628 5627 5627 5626 5625 5625 5624 5624
5738 5734 5731 5727 5724 5720 5716 5713 5709 5705 5701 5696 5693 5689 5686 5683 5680 5677 5674 5671 5667 5664 5660 5657 5653 5650 5646 5643 5640 5638 5635 5633 5631 5629 5627 5626 5625 5625 5624 5624 5624 5624 5624
5736 5733 5729 5725 5722 5718 5715 5712 5708 5705 5702 5698 5694 5691 5687 5684 5681 5678 5675 5671 5668 5665 5662 5658 5655 5651 5646 5642 5638 5635 5632 5630 5629 5627 5626 5624 5623 5623 5623 5623 5623 5623 5623
5732 5728 5725 5722 5719 5716 5713 5709 5707 5703 5700 5698 5694 5691 5688 5685 5681 5678 5675 5672 5669 5666 5662 5659 5655 5650 5645 5639 5633 5627 5623 5621 5622 5623 5624 5623 5622 5622 5622 5622 5622 5621 5621